Weather in Oakland

United States     37°46′58″N   122°11′34″W
temp.,
°C
wind,
m/s
gust,
m/s
humid.,
%
clouds,
%
prec.,
mm/h
press.,
hPa
HPBL,
m
16 may, sun
sun1623:00+10w229096 0.0 101347
02:00+11sw1286100 0.0 1012108
05:00+10s229095 0.0 101366
08:00+11ssw2282100 0.0 1014349
11:00+13wsw337165 0.0 1015456
14:00+15w56661 0.0 1015493
17:00+13w68739 0.0 1014451
20:00+11w468268 0.0 1015410
17 may, mon
mon1723:00+11wsw358374 0.0 1015399
02:00+11wsw468291 0.0 1015444
05:00+11sw358297 0.0 1016460
08:00+11ssw347999 0.0 1017458
11:00+14wsw44684 0.0 1017476
14:00+14wsw566912 0.0 1017437
17:00+13wsw5777100 0.0 1017456
20:00+11wsw468623 0.0 1016219
18 may, tue
tue1823:00+10ssw34911 0.0 101780
02:00+9sw349237 0.0 101783
05:00+11s348655 0.0 1017277
08:00+11s33820 0.0 1018236
11:00+16wsw34610 0.0 1018401
14:00+16wsw57570 0.0 1017422
17:00+15w58510 0.0 1016376
20:00+10w59750 0.0 1016338
19 may, wed
wed1923:00+9w68880 0.0 1016229
02:00+9w58830 0.0 1016236
05:00+8w58860 0.0 1016243
08:00+11w57664 0.0 1016507
11:00+13w67550 0.0 1016672
14:00+14w89540 0.0 1015637
17:00+13w810550 0.0 1013507
20:00+10wnw610680 0.0 1014484
20 may, thu
thu2023:00+8w57830 0.0 1015255
02:00+8w610810 0.0 1015335
05:00+9w711730 0.0 1015483
08:00+10wnw711620 0.0 1016818
11:00+14wnw710470 0.0 10161113
14:00+14w1010510 0.0 1015958
17:00+13wnw912545 0.0 1014633
20:00+10wnw711710 0.0 1014367